Waarnemingen

Advertentie
Mijn weer
Dunkerque, Frankrijk (7010): temperatuur & dauwpunt: 16.01.2018 21:00:00 - 22.01.2018 21:00:00 (CET)Dunkerque, Frankrijk (7010): windsnelheid & windstoten: 16.01.2018 21:00:00 - 22.01.2018 21:00:00 (CET)Dunkerque, Frankrijk (7010): windrichting: 16.01.2018 21:00:00 - 22.01.2018 21:00:00 (CET)Dunkerque, Frankrijk (7010): luchtdruk: 16.01.2018 21:00:00 - 22.01.2018 21:00:00 (CET)Dunkerque, Frankrijk (7010): zicht: 16.01.2018 21:00:00 - 22.01.2018 21:00:00 (CET)Dunkerque, Frankrijk (7010): neerslag: 16.01.2018 21:00:00 - 22.01.2018 21:00:00 (CET)
Datum & Tijd tt [°C] td [°C] ff [km/u] ff [kn] fx [km/u] fx [kn] dd ppp [hPa] vv [km] rr [mm]
22.01.2018 21:00:00 - - - - - - - - - -
22.01.2018 20:00:00 8,8 4,8 19 10 31 17 W 1018,0 - 0,0
22.01.2018 19:00:00 8,5 5,4 19 10 30 16 WNW 1017,3 18 0,0
22.01.2018 18:00:00 8,3 5,6 16 8 27 15 W 1016,3 - 0,0
22.01.2018 17:00:00 8,4 5,3 21 11 32 17 WNW 1015,0 - 0,0
22.01.2018 16:00:00 8,7 5,1 20 11 31 17 WNW 1013,9 - 0,0
22.01.2018 15:00:00 9,2 5,4 16 8 24 13 WNW 1012,0 - 0,0
22.01.2018 14:00:00 9,2 5,7 18 10 27 15 WNW 1011,3 - 0,0
22.01.2018 13:00:00 8,6 5,9 16 9 25 13 WNW 1010,6 - 0,0
22.01.2018 12:00:00 8,8 5,9 16 8 23 12 NW 1010,1 - 0,0
22.01.2018 11:00:00 8,5 5,9 9 5 18 10 WNW 1009,2 - 0,0
22.01.2018 10:00:00 8,4 6,4 11 6 19 11 NW 1008,2 - 0,0
22.01.2018 09:00:00 8,4 7,0 16 9 34 18 W 1007,7 - 0,0
22.01.2018 08:00:00 8,8 7,2 23 13 44 24 W 1007,1 - 0,0
22.01.2018 07:00:00 9,6 7,7 27 14 49 27 W 1006,7 - 0,0
22.01.2018 06:00:00 9,5 7,9 26 14 51 28 W 1006,8 - 0,0
22.01.2018 05:00:00 9,6 8,4 31 17 45 24 W 1006,6 - 0,0
22.01.2018 04:00:00 9,2 7,8 29 15 52 28 W 1006,6 - 0,0
22.01.2018 03:00:00 10,1 8,7 31 17 55 30 W 1006,2 - 0,0
22.01.2018 02:00:00 10,1 9,0 29 16 54 29 W 1006,3 - 0,0
22.01.2018 01:00:00 10,0 9,2 30 16 47 25 W 1006,3 - 0,0
22.01.2018 00:00:00 8,6 7,8 13 7 33 18 ZW 1006,3 - 0,0
21.01.2018 23:00:00 4,6 3,9 14 8 41 22 Z 1006,7 - 0,2
21.01.2018 22:00:00 3,4 2,5 19 10 44 24 Z 1007,1 - 1,8
21.01.2018 21:00:00 2,9 1,9 28 15 43 23 ZZO 1007,8 - 4,6
21.01.2018 20:00:00 2,6 1,4 30 16 48 26 ZZO 1009,1 - 3,5
21.01.2018 19:00:00 2,5 1,2 33 18 53 28 ZZO 1010,2 - 0,4
21.01.2018 18:00:00 2,2 0,9 30 16 46 25 ZZO 1011,5 - 0,4
21.01.2018 17:00:00 2,0 0,7 28 15 46 25 ZZO 1012,8 - 1,0
21.01.2018 16:00:00 2,0 0,7 19 10 31 17 ZZO 1014,3 - 1,0
21.01.2018 15:00:00 2,5 0,4 21 11 31 17 Z 1015,2 - 1,2
21.01.2018 14:00:00 3,3 0,0 19 11 32 17 ZZW 1016,0 - 0,2
21.01.2018 13:00:00 4,4 0,0 18 10 37 20 ZW 1016,1 - 0,0
21.01.2018 12:00:00 4,1 1,1 13 7 21 11 ZZW 1016,7 - 0,0
21.01.2018 11:00:00 4,1 1,8 14 7 23 12 ZZW 1017,0 - 0,0
21.01.2018 10:00:00 4,0 1,7 6 3 16 9 ZW 1016,8 - 0,0
21.01.2018 09:00:00 4,9 1,2 8 4 14 8 W 1016,1 - 0,0
21.01.2018 08:00:00 5,0 0,6 7 4 17 9 NW 1015,5 - 0,0
21.01.2018 07:00:00 4,9 0,8 12 6 23 12 NW 1014,7 15 0,0
21.01.2018 06:00:00 5,1 1,0 14 8 30 16 NNW 1014,3 - 0,0
21.01.2018 05:00:00 5,1 0,5 22 12 34 18 NNW 1013,6 - 0,0
21.01.2018 04:00:00 5,3 1,0 24 13 41 22 NNW 1012,9 - 0,0
21.01.2018 03:00:00 5,4 1,5 24 13 40 22 NNW 1012,1 - 0,0
21.01.2018 02:00:00 5,2 1,9 28 15 38 21 NNW 1010,9 - 0,0
21.01.2018 01:00:00 5,3 1,6 26 14 40 22 NNW 1009,3 - 0,0
21.01.2018 00:00:00 5,6 2,8 20 11 37 20 N 1007,7 - 0,2
20.01.2018 23:00:00 5,3 3,3 20 11 36 20 N 1006,3 - 0,2
20.01.2018 22:00:00 5,6 2,9 11 6 25 13 N 1004,9 - 0,0
20.01.2018 21:00:00 5,1 2,9 21 12 28 15 NNO 1003,4 - 0,0
20.01.2018 20:00:00 5,0 4,0 17 9 21 12 NO 1001,8 - 0,0
20.01.2018 19:00:00 4,9 4,0 9 5 14 7 ONO 1000,6 8 0,2
20.01.2018 18:00:00 4,9 4,0 5 3 8 4 O 999,7 - 0,4
20.01.2018 17:00:00 5,0 4,0 3 2 13 7 O 999,1 - 0,2
20.01.2018 16:00:00 5,0 4,0 9 5 14 7 OZO 998,5 - 0,0
20.01.2018 15:00:00 5,1 3,9 11 6 18 10 OZO 998,3 - 0,2
20.01.2018 14:00:00 5,1 4,1 11 6 18 10 OZO 998,8 - 0,2
20.01.2018 13:00:00 4,6 3,4 13 7 21 11 OZO 999,8 - 0,8
20.01.2018 12:00:00 4,4 3,2 13 7 22 12 ZO 1001,2 - 0,8
20.01.2018 11:00:00 4,4 3,1 13 7 20 11 ZZO 1002,0 - 0,6
20.01.2018 10:00:00 4,3 3,0 13 7 21 12 Z 1002,8 - 0,4
20.01.2018 09:00:00 4,3 2,8 13 7 24 13 Z 1003,7 - 0,6
20.01.2018 08:00:00 4,1 2,3 16 8 22 12 Z 1004,4 - 0,0
20.01.2018 07:00:00 2,9 0,6 15 8 22 12 Z 1005,4 15 0,0
20.01.2018 06:00:00 3,4 0,1 10 5 28 15 Z 1006,2 - 0,0
20.01.2018 05:00:00 6,2 1,5 20 11 35 19 W 1007,1 - 0,0
20.01.2018 04:00:00 6,3 1,4 23 12 41 22 W 1008,2 - 0,0
20.01.2018 03:00:00 6,1 1,8 27 14 42 23 W 1009,2 - 0,0
20.01.2018 02:00:00 5,8 1,9 26 14 42 23 W 1009,6 - 0,0
20.01.2018 01:00:00 5,8 1,3 26 14 42 23 W 1009,8 - 0,0
20.01.2018 00:00:00 5,8 0,9 24 13 42 23 W 1010,2 - 0,0
19.01.2018 23:00:00 6,0 1,3 27 14 45 24 W 1010,0 - 0,0
19.01.2018 22:00:00 6,6 1,3 30 16 53 29 W 1010,0 - 0,0
19.01.2018 21:00:00 6,8 0,7 32 17 51 27 W 1009,7 - 0,0
19.01.2018 20:00:00 6,7 0,1 27 15 50 27 W 1009,5 - 0,0
19.01.2018 19:00:00 6,8 -0,4 26 14 47 26 W 1009,7 20 0,0
19.01.2018 18:00:00 6,6 0,3 26 14 48 26 W 1009,4 - 0,0
19.01.2018 17:00:00 6,6 0,3 29 16 48 26 W 1009,5 - 0,0
19.01.2018 16:00:00 6,9 0,8 28 15 48 26 W 1009,5 - 0,0
19.01.2018 15:00:00 6,9 0,8 31 17 49 26 W 1009,4 - 0,0
19.01.2018 14:00:00 7,0 1,5 29 16 49 26 W 1009,7 - 0,0
19.01.2018 13:00:00 6,6 1,5 27 15 45 25 W 1009,9 17 0,0
19.01.2018 12:00:00 6,3 1,0 24 13 38 21 W 1010,2 - 0,0
19.01.2018 11:00:00 6,0 0,9 13 7 22 12 ZW 1009,8 - 0,0
19.01.2018 10:00:00 5,5 0,8 11 6 33 18 Z 1009,7 - 0,0
19.01.2018 09:00:00 5,3 0,1 23 12 35 19 W 1009,3 - 0,0
19.01.2018 08:00:00 5,4 0,4 26 14 37 20 W 1008,8 - 0,0
19.01.2018 07:00:00 5,3 0,5 30 16 42 23 WNW 1008,4 - 0,0
19.01.2018 06:00:00 5,5 0,7 32 17 47 26 W 1008,2 - 0,0
19.01.2018 05:00:00 5,6 0,8 33 18 49 26 W 1007,9 - 0,0
19.01.2018 04:00:00 5,7 0,8 34 18 49 27 W 1007,4 - 0,0
19.01.2018 03:00:00 5,8 0,7 36 19 54 29 W 1007,1 - 0,0
19.01.2018 02:00:00 6,1 0,6 37 20 53 29 WNW 1006,7 - 0,0
19.01.2018 01:00:00 6,3 0,8 38 20 56 31 WNW 1006,0 17 0,0
19.01.2018 00:00:00 6,7 1,8 38 20 52 28 W 1005,1 - 0,0
18.01.2018 23:00:00 7,0 1,3 31 17 53 28 WNW 1004,7 - 0,0
18.01.2018 22:00:00 7,1 2,2 36 19 51 28 W 1004,0 15 0,0
18.01.2018 21:00:00 6,6 3,4 25 14 39 21 NW 1003,8 - 0,2
18.01.2018 20:00:00 6,0 3,2 16 8 56 30 NW 1003,1 8 1,2
18.01.2018 19:00:00 8,1 4,3 32 17 51 27 W 1002,2 - 0,0
18.01.2018 18:00:00 8,4 3,8 16 9 46 25 ZW 1002,2 - 0,0
18.01.2018 17:00:00 8,4 3,6 29 16 45 24 W 1002,6 - 0,0
18.01.2018 16:00:00 8,7 3,5 26 14 42 23 W 1002,6 13 0,0
18.01.2018 15:00:00 8,7 3,1 27 15 53 28 W 1002,4 - 0,0
18.01.2018 14:00:00 9,0 3,0 28 15 49 27 W 1002,3 - 0,0
18.01.2018 13:00:00 8,5 1,9 37 20 55 30 W 1002,5 15 0,0
18.01.2018 12:00:00 8,2 1,8 37 20 71 39 WNW 1002,4 - 0,0
18.01.2018 11:00:00 8,2 1,1 46 25 77 42 WNW 1001,2 - 0,0
18.01.2018 10:00:00 8,8 1,0 50 27 85 46 WNW 999,3 - 0,0
18.01.2018 09:00:00 9,4 3,4 50 27 95 52 W 996,3 - 0,0
18.01.2018 08:00:00 10,0 5,0 45 24 96 52 W 993,8 - 0,0
18.01.2018 07:00:00 11,5 7,2 52 28 108 59 WZW 992,0 - 0,0
18.01.2018 06:00:00 11,5 7,2 45 25 89 48 WZW 991,9 - 0,0
18.01.2018 05:00:00 10,7 8,1 40 22 87 47 WZW 993,1 - 0,0
18.01.2018 04:00:00 8,9 7,0 40 22 70 38 ZW 995,0 - 0,2
18.01.2018 03:00:00 6,9 5,0 36 20 64 35 ZZW 997,0 - 0,8
18.01.2018 02:00:00 5,9 4,7 24 13 41 22 ZZW 1000,4 - 2,4
18.01.2018 01:00:00 5,9 3,6 19 11 49 27 ZZW 1003,7 - 0,8
18.01.2018 00:00:00 8,1 2,3 24 13 50 27 ZW 1006,2 - 0,0
17.01.2018 23:00:00 8,0 2,0 19 10 59 32 WZW 1007,1 - 0,0
17.01.2018 22:00:00 7,5 1,1 25 13 65 35 W 1008,5 15 0,0
17.01.2018 21:00:00 7,3 1,8 38 21 68 37 W 1008,7 - 0,0
17.01.2018 20:00:00 7,3 1,1 34 19 61 33 W 1008,7 - 0,0
17.01.2018 19:00:00 7,4 0,4 31 17 58 32 W 1009,1 - 0,0
17.01.2018 18:00:00 7,4 -0,1 38 21 59 32 W 1008,7 - 0,0
17.01.2018 17:00:00 7,4 0,1 35 19 65 35 W 1008,8 - 0,0
17.01.2018 16:00:00 7,7 0,2 36 20 55 30 W 1008,3 - 0,0
17.01.2018 15:00:00 7,9 0,6 34 19 58 31 W 1008,0 - 0,0
17.01.2018 14:00:00 7,4 -0,6 38 21 74 40 W 1007,6 - 0,0
17.01.2018 13:00:00 7,2 0,4 49 27 76 41 W 1006,6 - 0,0
17.01.2018 12:00:00 6,7 -0,5 51 28 80 43 WNW 1005,8 - 0,0
17.01.2018 11:00:00 6,4 0,1 52 28 85 46 WNW 1004,5 - 0,0
17.01.2018 10:00:00 5,6 -0,7 57 31 87 47 WNW 1003,6 10 0,0
17.01.2018 09:00:00 5,2 -0,8 50 27 73 40 W 1002,2 - 0,0
17.01.2018 08:00:00 5,0 -1,7 53 29 83 45 W 1001,1 - 0,0
17.01.2018 07:00:00 4,9 -0,9 53 29 79 43 WNW 1000,2 - 0,0
17.01.2018 06:00:00 4,7 -0,9 52 28 82 44 W 998,9 - 0,0
17.01.2018 05:00:00 4,9 -1,1 54 29 79 43 W 997,7 - 0,0
17.01.2018 04:00:00 5,1 -0,9 50 27 76 41 W 997,2 - 0,0
17.01.2018 03:00:00 5,2 -1,3 50 27 75 40 W 996,1 - 0,0
17.01.2018 02:00:00 5,5 -0,1 44 24 68 37 W 995,0 - 0,0
17.01.2018 01:00:00 5,8 0,5 41 22 67 36 W 995,2 - 0,0
17.01.2018 00:00:00 6,0 0,3 44 24 72 39 W 994,5 - 0,0
16.01.2018 23:00:00 6,5 0,8 39 21 67 36 W 993,8 - 0,0
16.01.2018 22:00:00 6,8 2,1 34 19 65 35 W 994,1 - 0,0
16.01.2018 21:00:00 7,2 1,1 35 19 57 31 W 994,4 - 0,0

tt = temperatuur
td = dauwpunt
ff = windsnelheid
fx = windstoten
dd = windrichting
ppp = luchtdruk
vv = zicht
rr = neerslag

Weerstations in de omgeving